Flag for Portugal Weather past 2 weeks in Porto, Portugal

Now
66 °F

Sunny.


Feels Like: 66 °F
Forecast: 57 / 72 °F
Wind: 9 mph from North

Location: Porto / Pedras Rubras

Current Time: Sep 3, 2015 at 8:20:29 PM

Latest Report: Sep 3, 2015 at 8:00 PM


Visibility: 10 mi

Pressure: 29.95 "Hg

Humidity: 73%

Dew point: 57 °F

Location of PortoLocation

Historic Weather in Porto — Graph

°F

Porto temperature yesterday

Maximum temperature yesterday: 68 °F (at 12:30 PM)
Minimum temperature yesterday: 61 °F (at 10:00 PM)
Average temperature yesterday: 65 °F

Past Weeks' High & Low Weather Summary

 TemperatureHumidityPressure
High81 °F (Aug 30, 12:00 PM)100% (Aug 20, 4:30 AM)30.15 "Hg (Aug 20, 4:30 AM)
Low55 °F (Aug 24, 7:00 AM)51% (Aug 30, 12:00 PM)29.83 "Hg (Aug 23, 3:30 PM)
Average66 °F87%30.01 "Hg
* Reported Aug 19 7:00 PM — Sep 3 7:00 PM, Porto, Weather by CustomWeather, © 2015

Note: Actual official high and low records may vary slightly from our data, if they occured in-between our weather recording intervals... More about our weather records

Advertising

Porto weather history for previous 24 hours

 ConditionsComfort  
Time TempWeatherWind HumidityBarometerVisibility
7:00 PM
Thu, Sep 3
68 °FSunny.10 mph64%29.95 "Hg10 mi
6:30 PM70 °FSunny.12 mph60%29.98 "Hg10 mi
6:00 PM70 °FPassing clouds.9 mph60%29.95 "HgN/A
5:30 PM72 °FPassing clouds.12 mph61%29.98 "HgN/A
5:00 PM73 °FPassing clouds.10 mph57%29.98 "HgN/A
4:30 PM72 °FPassing clouds.13 mph61%29.98 "HgN/A
4:00 PM72 °FPassing clouds.14 mph61%29.98 "HgN/A
3:30 PM72 °FPassing clouds.14 mph61%29.98 "HgN/A
3:00 PM72 °FPassing clouds.13 mph61%29.98 "HgN/A
2:30 PM72 °FPassing clouds.13 mph61%29.98 "HgN/A
2:00 PM72 °FPassing clouds.14 mph65%29.98 "HgN/A
1:30 PM72 °FPassing clouds.12 mph65%30.01 "HgN/A
1:00 PM72 °FPassing clouds.9 mph65%30.01 "HgN/A
12:30 PM72 °FPassing clouds.9 mph65%30.01 "HgN/A
12:00 PM72 °FPassing clouds.9 mph65%30.01 "HgN/A
11:30 AM72 °FPassing clouds.8 mph65%30.01 "HgN/A
11:00 AM68 °FPassing clouds.6 mph69%30.04 "HgN/A
10:30 AM66 °FPassing clouds.6 mph73%30.04 "HgN/A
10:00 AM66 °FPassing clouds.3 mph73%30.04 "HgN/A
9:30 AM63 °FSunny.2 mph83%30.01 "Hg10 mi
9:00 AM61 °FPassing clouds.3 mph88%30.01 "HgN/A
8:30 AM61 °FPassing clouds.5 mph88%30.01 "HgN/A
8:00 AM57 °FClear.5 mph94%30.01 "Hg10 mi
7:30 AM55 °FLight fog.3 mph100%30.01 "HgN/A
7:00 AM55 °FLight fog.6 mph94%29.98 "Hg5 mi
6:30 AM55 °FPassing clouds.5 mph100%29.98 "Hg5 mi
6:00 AM57 °FLight fog.3 mph100%29.98 "Hg4 mi
5:30 AM57 °FLight fog.1 mph94%29.98 "Hg4 mi
5:00 AM57 °FLight fog.No wind100%29.98 "Hg4 mi
4:30 AM57 °FPassing clouds.3 mph100%29.98 "Hg4 mi
4:00 AM59 °FPassing clouds.3 mph100%29.98 "Hg4 mi
3:30 AM59 °FPassing clouds.2 mph94%29.98 "Hg4 mi
3:00 AM59 °FClear.3 mph94%29.98 "Hg6 mi
2:30 AM59 °FClear.5 mph100%29.98 "Hg6 mi
2:00 AM61 °FPassing clouds.3 mph94%29.98 "HgN/A
1:30 AM63 °FPassing clouds.6 mph94%29.98 "HgN/A
1:00 AM61 °FPassing clouds.5 mph94%29.98 "HgN/A
12:30 AM59 °FPassing clouds.2 mph94%29.98 "HgN/A
12:00 AM61 °FPassing clouds.5 mph94%29.98 "HgN/A
11:30 PM
Wed, Sep 2
61 °FPassing clouds.6 mph94%29.98 "HgN/A
11:00 PM63 °FPassing clouds.6 mph88%29.95 "HgN/A
10:30 PM61 °FPassing clouds.7 mph94%29.95 "HgN/A
10:00 PM61 °FPassing clouds.5 mph100%29.98 "HgN/A
9:30 PM63 °FPassing clouds.3 mph88%29.98 "HgN/A
9:00 PM63 °FPassing clouds.2 mph88%29.95 "HgN/A
8:30 PM64 °FPassing clouds.3 mph83%29.95 "HgN/A
8:00 PM64 °FPassing clouds.3 mph83%29.95 "HgN/A
Weather by CustomWeather, © 2015

See weather overviewHow to use our weather pages